Tracking 25964 objects as of 11-Aug-2022
HD Live streaming from Space Station
objects crossing your sky now

STARLINK-2161

Track STARLINK-2161 now!
10-day predictions
STARLINK-2161 is classified as:


NORAD ID: 47747
Int'l Code: 2021-017AB
Perigee: 553.6 km
Apogee: 555.4 km
Inclination: 53.1 °
Period: 95.6 minutes
Semi major axis: 6925 km
RCS: Unknown
Launch date: March 4, 2021
Source: United States (US)
Launch site: AIR FORCE EASTERN TEST RANGE (AFETR)
aabbcc
Your satellite tracking list
Your tracking list is empty




NASA's NSSDC Master Catalog

Two Line Element Set (TLE):
1 47747U 21017AB  22222.36908164 -.00010632  00000-0 -69661-3 0  9992
2 47747  53.0538 310.4044 0001307  82.1753 277.9385 15.06364577 80854
Source of the keplerian elements: AFSPC